[[{"header":{"parameterUnit":"m.s-1","parameterCategory":1,"la1":30.2991,"la2":30.254,"lo1":-89.0895,"lo2":-89.0444,"dx":0.0017,"dy":0.0017,"nx":28,"ny":28,"refTime":"2022-11-16T09:00:00:Z","depth":0,"parameterNumber":2,"parameterNumberName":"U-component_of_WINDS"},"data":[0,0,0,0,0,0,0,0,0,0,0,0,0,0,0,0,0,0,0,0,0,0,0,0,0,0,0,0,0,0,0,0,0,0,0,0,0,0,0,0,0,0,0,0,0,0,0,0,0,0,0,0,0,0,0,0,0,0,1.3769,1.3769,0,1.3748,1.3748,1.3747,1.3729,1.3729,1.3728,1.3728,1.3705,1.3704,1.3704,0,0,0,0,0,0,0,0,0,0,0,0,0,1.3792,1.3792,1.3769,1.3769,1.3768,1.3748,1.3748,1.3747,1.3729,1.3729,1.3728,1.3728,1.3705,1.3704,1.3704,0,0,0,0,0,0,0,0,0,0,0,0,0,1.3778,1.3792,1.3769,1.3757,1.3755,1.3748,1.3748,1.3747,1.3729,1.3729,1.3728,1.3728,1.3705,1.3705,1.3704,1.3706,0,0,1.3702,1.3702,0,0,0,0,0,0,0,0,1.3779,1.3777,1.3759,1.3758,1.3756,1.3741,1.3747,1.3733,1.3729,1.3739,1.3728,1.3728,1.3717,1.3715,1.3712,1.3705,1.3704,1.3702,1.3701,1.3701,1.3701,0,0,0,0,0,0,0,1.378,1.3778,1.376,1.3759,1.3757,1.3752,1.375,1.3745,1.373,1.3738,1.3737,1.3735,1.3716,1.3713,1.3711,1.3704,1.3702,1.3701,1.3701,1.3701,1.3698,1.3699,0,0,0,0,0,0,1.3783,1.3779,1.3761,1.376,1.3767,1.3752,1.3749,1.3746,1.373,1.3727,1.3735,1.3734,1.3714,1.3712,1.371,1.3712,1.3701,1.3701,1.37,1.3698,1.3699,1.3699,0,0,0,0,0,0,1.3783,1.3781,1.3762,1.3769,1.3766,1.3752,1.3748,1.3746,1.3742,1.3727,1.3725,1.3734,1.3714,1.3711,1.3708,1.3711,1.37,1.37,1.3698,1.3698,1.3699,1.3716,0,0,0,0,0,0,1.3784,1.3782,1.3782,1.3769,1.3766,1.376,1.3749,1.3745,1.3741,1.374,1.3726,1.3723,1.3713,1.3709,1.3707,1.371,1.3699,1.3697,1.3698,1.3699,1.3715,1.3717,1.3719,0,0,0,0,0,1.3785,1.3787,1.3783,1.3781,1.3767,1.376,1.3758,1.3747,1.3742,1.3742,1.3733,1.3724,1.3711,1.3708,1.3706,1.3709,1.3697,1.3698,1.3698,1.3714,1.3716,1.3718,0,0,0,0,0,0,1.38,1.3785,1.378,1.3778,1.3771,1.3757,1.3757,1.375,1.3743,1.3742,1.3727,1.3725,1.3723,1.3716,1.3713,1.3711,1.3703,1.3703,1.3715,1.3718,1.3719,1.3721,1.3699,0,0,0,0,0,1.3804,1.38,1.3787,1.3787,1.3784,1.3771,1.3768,1.376,1.3752,1.3748,1.3738,1.373,1.3724,1.3721,1.3715,1.3714,1.3711,1.3715,1.3717,1.3719,1.3719,1.3719,1.3721,1.3701,1.3701,1.3701,0,0,1.381,1.3802,1.38,1.379,1.3783,1.378,1.3769,1.3765,1.3762,1.3747,1.3743,1.3736,1.3726,1.3724,1.3723,1.3719,1.3724,1.372,1.3721,1.372,1.372,1.3722,1.3723,1.3702,1.3702,1.3702,0,0,1.382,1.3814,1.3813,1.3807,1.3797,1.3789,1.379,1.3777,1.3772,1.3769,1.3758,1.3754,1.3744,1.3738,1.3733,1.3743,1.3734,1.3741,1.375,1.375,1.3752,1.3753,1.3757,1.3758,1.3742,1.3742,1.3742,0,1.383,1.3824,1.3814,1.3811,1.3807,1.3795,1.3794,1.3788,1.3777,1.3775,1.377,1.3758,1.3751,1.3747,1.375,1.3747,1.3746,1.3742,1.3753,1.3754,1.3755,1.3758,1.3759,1.3743,1.3743,1.3742,1.3742,0,1.3836,1.3832,1.3833,1.3823,1.382,1.3818,1.3807,1.3804,1.3798,1.379,1.3787,1.3778,1.377,1.3769,1.3761,1.3765,1.3762,1.3755,1.3747,1.3758,1.3761,1.3762,1.3744,1.3744,1.3743,1.3743,0,0,1.3853,1.3839,1.384,1.3836,1.3825,1.3822,1.382,1.3813,1.3811,1.3805,1.3803,1.3796,1.379,1.3785,1.3777,1.3777,1.3786,1.377,1.377,1.3773,1.3789,1.3794,1.3795,1.378,1.3781,1.3781,1.379,0,1.3861,1.3858,1.3849,1.3848,1.3845,1.3834,1.3832,1.3826,1.3819,1.3816,1.3808,1.3803,1.3796,1.3793,1.3793,1.3785,1.3788,1.3784,1.3778,1.3778,1.378,1.3797,1.3801,1.381,1.3791,1.3791,1.3791,0,1.387,1.3865,1.3864,1.3854,1.3852,1.3851,1.3845,1.3842,1.3834,1.3829,1.3825,1.3817,1.3814,1.3807,1.3804,1.3801,1.3798,1.3794,1.3794,1.3792,1.3784,1.3795,1.3813,1.3814,1.3793,1.3792,1.3792,0,1.3883,1.3875,1.3874,1.3871,1.386,1.3859,1.3855,1.3847,1.3844,1.3838,1.3836,1.383,1.3827,1.3823,1.3813,1.3809,1.3811,1.3803,1.3807,1.3807,1.3807,1.3807,1.3824,1.3806,1.3806,1.3806,1.3806,0,1.3892,1.3892,1.388,1.3879,1.3878,1.3869,1.3868,1.3863,1.3856,1.3854,1.3845,1.3843,1.3831,1.3827,1.382,1.3818,1.3817,1.3813,1.3811,1.3813,1.3814,1.3811,1.381,1.3806,1.3806,1.3806,1.3806,0,1.3905,1.3897,1.3895,1.3886,1.3883,1.3884,1.3875,1.3874,1.3868,1.3865,1.3864,1.3854,1.385,1.384,1.3833,1.3828,1.3828,1.3825,1.3831,1.383,1.3834,1.3833,1.3849,1.385,1.3832,1.3833,1.3833,0,1.3911,1.3911,1.3902,1.39,1.3896,1.3893,1.3891,1.3881,1.3879,1.3871,1.3871,1.3866,1.3862,1.3856,1.3848,1.3843,1.3839,1.3845,1.3838,1.3841,1.3838,1.3838,1.3838,1.3846,1.3846,1.3846,1.3846,0,1.3923,1.392,1.3916,1.3912,1.3909,1.3905,1.39,1.3899,1.3889,1.3886,1.3882,1.3879,1.3873,1.3868,1.3863,1.3857,1.385,1.3849,1.3849,1.3851,1.3855,1.3853,1.3835,1.3848,1.3848,1.3848,1.3848,1.3848,1.3933,1.3932,1.3926,1.3923,1.3919,1.3915,1.3914,1.3908,1.3905,1.3899,1.3894,1.3891,1.3884,1.3876,1.3872,1.3869,1.3865,1.3866,1.3866,1.3866,1.3867,1.3856,1.3868,1.3868,1.3868,1.3868,1.3867,0,1.3944,1.394,1.3937,1.3931,1.3929,1.3924,1.3918,1.3917,1.3914,1.3909,1.3905,1.3901,1.3898,1.389,1.3885,1.3885,1.3881,1.3884,1.3883,1.3882,1.3871,1.3871,1.3886,1.3886,1.3886,1.3886,1.3886,1.3886,1.3949,1.3948,1.3944,1.3941,1.3937,1.3935,1.3932,1.3929,1.3925,1.3921,1.3918,1.3913,1.3907,1.3902,1.3899,1.3897,1.3895,1.3899,1.3895,1.3885,1.3883,1.3881,1.3881,1.3898,1.3898,1.3907,1.3907,1.3907]},{"header":{"parameterUnit":"m.s-1","parameterCategory":1,"la1":30.2991,"la2":30.254,"lo1":-89.0895,"lo2":-89.0444,"dx":0.0017,"dy":0.0017,"nx":28,"ny":28,"refTime":"2022-11-16T09:00:00:Z","depth":0,"parameterNumber":3,"parameterNumberName":"V-component_of_WINDS"},"data":[0,0,0,0,0,0,0,0,0,0,0,0,0,0,0,0,0,0,0,0,0,0,0,0,0,0,0,0,0,0,0,0,0,0,0,0,0,0,0,0,0,0,0,0,0,0,0,0,0,0,0,0,0,0,0,0,0,0,-6.8312,-6.8313,0,-6.8411,-6.8412,-6.8413,-6.8369,-6.8367,-6.8365,-6.8362,-6.8457,-6.8462,-6.8467,0,0,0,0,0,0,0,0,0,0,0,0,0,-6.8081,-6.8085,-6.8312,-6.8313,-6.8315,-6.8411,-6.8412,-6.8413,-6.837,-6.8367,-6.8364,-6.8361,-6.8456,-6.8462,-6.8467,0,0,0,0,0,0,0,0,0,0,0,0,0,-6.818,-6.8087,-6.8312,-6.8305,-6.8305,-6.841,-6.8412,-6.8414,-6.837,-6.8367,-6.8363,-6.836,-6.8454,-6.8461,-6.8468,-6.8585,0,0,-6.849,-6.8493,0,0,0,0,0,0,0,0,-6.8175,-6.8189,-6.8304,-6.8305,-6.8306,-6.8374,-6.8365,-6.8471,-6.8371,-6.8345,-6.8362,-6.8358,-6.8432,-6.8441,-6.8467,-6.8589,-6.8593,-6.8491,-6.8495,-6.8498,-6.85,0,0,0,0,0,0,0,-6.8168,-6.8184,-6.8351,-6.8306,-6.8307,-6.8295,-6.8305,-6.8385,-6.8408,-6.8347,-6.8344,-6.8357,-6.8432,-6.846,-6.8469,-6.8595,-6.849,-6.8497,-6.8501,-6.8504,-6.8817,-6.8821,0,0,0,0,0,0,-6.8162,-6.8179,-6.8348,-6.8354,-6.823,-6.8302,-6.8313,-6.8356,-6.8407,-6.8411,-6.836,-6.8355,-6.845,-6.8461,-6.8472,-6.8612,-6.8498,-6.8505,-6.8509,-6.8813,-6.8818,-6.8822,0,0,0,0,0,0,-6.8157,-6.8177,-6.8344,-6.8266,-6.8286,-6.831,-6.8358,-6.836,-6.8388,-6.8416,-6.842,-6.8385,-6.8448,-6.8462,-6.8558,-6.8615,-6.8508,-6.8514,-6.8808,-6.8814,-6.882,-6.8893,0,0,0,0,0,0,-6.815,-6.8176,-6.8222,-6.8267,-6.829,-6.8429,-6.8361,-6.8364,-6.8401,-6.8395,-6.8441,-6.8445,-6.8446,-6.8547,-6.8565,-6.8623,-6.852,-6.8803,-6.8811,-6.8818,-6.8886,-6.8901,-6.8914,0,0,0,0,0,-6.8142,-6.8237,-6.8224,-6.8245,-6.8348,-6.8433,-6.8446,-6.8446,-6.8406,-6.8452,-6.847,-6.8444,-6.8606,-6.8557,-6.8577,-6.8638,-6.8799,-6.8809,-6.8817,-6.8879,-6.8898,-6.8913,0,0,0,0,0,0,-6.8195,-6.8243,-6.8229,-6.8341,-6.8384,-6.8425,-6.8482,-6.8466,-6.8519,-6.851,-6.8507,-6.8518,-6.8616,-6.8636,-6.8581,-6.8753,-6.8696,-6.871,-6.8737,-6.8755,-6.8768,-6.8761,-6.8526,0,0,0,0,0,-6.822,-6.8286,-6.8324,-6.8419,-6.8441,-6.8459,-6.8495,-6.8492,-6.8535,-6.8552,-6.8577,-6.8618,-6.8678,-6.8717,-6.8774,-6.8888,-6.8897,-6.894,-6.8954,-6.8966,-6.8977,-6.9039,-6.9058,-6.8852,-6.8852,-6.8851,0,0,-6.8272,-6.8306,-6.8348,-6.8431,-6.8463,-6.853,-6.8473,-6.8547,-6.8596,-6.8562,-6.8654,-6.8674,-6.8719,-6.8825,-6.8872,-6.8844,-6.9036,-6.8977,-6.8986,-6.8991,-6.905,-6.9069,-6.9087,-6.8858,-6.8857,-6.8856,0,0,-6.84,-6.8433,-6.8517,-6.8551,-6.8601,-6.8612,-6.8632,-6.8677,-6.869,-6.8783,-6.8759,-6.8816,-6.892,-6.8953,-6.8984,-6.9126,-6.9104,-6.9145,-6.9218,-6.9278,-6.9294,-6.9309,-6.9359,-6.9377,-6.9156,-6.9156,-6.9156,0,-6.8457,-6.856,-6.8561,-6.8637,-6.8674,-6.8649,-6.8732,-6.8764,-6.883,-6.8855,-6.8824,-6.8954,-6.8983,-6.9096,-6.9131,-6.9156,-6.9178,-6.9139,-6.9292,-6.9307,-6.932,-6.9368,-6.9387,-6.9161,-6.916,-6.916,-6.9159,0,-6.8627,-6.8699,-6.8759,-6.8826,-6.887,-6.8949,-6.8961,-6.9005,-6.8998,-6.9012,-6.9106,-6.914,-6.9204,-6.923,-6.9224,-6.9342,-6.9323,-6.9293,-6.9235,-6.9344,-6.9389,-6.9408,-6.9167,-6.9166,-6.9164,-6.9163,0,0,-6.8791,-6.8859,-6.8881,-6.8911,-6.8965,-6.9019,-6.9097,-6.9161,-6.9198,-6.9245,-6.9309,-6.9398,-6.937,-6.9405,-6.9402,-6.9455,-6.9565,-6.9417,-6.9418,-6.9443,-6.9697,-6.972,-6.9741,-6.9551,-6.9554,-6.9557,-6.9693,0,-6.8923,-6.9062,-6.9066,-6.9191,-6.9257,-6.9234,-6.9302,-6.9341,-6.9357,-6.9413,-6.9428,-6.9492,-6.945,-6.9471,-6.9523,-6.9541,-6.9616,-6.9531,-6.9609,-6.9612,-6.9598,-6.9764,-6.9789,-6.9915,-6.971,-6.9713,-6.9716,0,-6.9096,-6.915,-6.9283,-6.9329,-6.9356,-6.9417,-6.9477,-6.9531,-6.9575,-6.9582,-6.9622,-6.9612,-6.9689,-6.963,-6.9737,-6.9679,-6.9711,-6.9725,-6.9729,-6.9736,-6.967,-6.9775,-6.9955,-6.9974,-6.9743,-6.9741,-6.9739,0,-6.9201,-6.9307,-6.9401,-6.9427,-6.9483,-6.9526,-6.9551,-6.9592,-6.963,-6.9682,-6.9706,-6.9765,-6.9797,-6.9842,-6.9847,-6.9804,-6.9954,-6.9895,-6.9961,-6.9961,-6.9992,-6.999,-7.018,-7.0015,-7.0014,-7.0014,-7.0014,0,-6.9348,-6.943,-6.9449,-6.9507,-6.9598,-6.9601,-6.969,-6.9711,-6.9748,-6.9808,-6.9791,-6.9847,-6.9851,-6.9908,-6.9912,-7.0,-7.0014,-7.0021,-7.0021,-7.0022,-7.0021,-7.0042,-7.0034,-7.0019,-7.0018,-7.0017,-7.0016,0,-6.9481,-6.9497,-6.9597,-6.9643,-6.9656,-6.9721,-6.9759,-6.9813,-6.9827,-6.9903,-6.9921,-6.9942,-7.0009,-7.0019,-7.0096,-7.0099,-7.0203,-7.0194,-7.0189,-7.0187,-7.0252,-7.0246,-7.0462,-7.049,-7.0306,-7.0308,-7.0309,0,-6.9573,-6.9636,-6.9689,-6.9729,-6.9757,-6.9821,-6.9861,-6.9867,-6.9908,-6.9964,-7.0011,-7.0077,-7.0129,-7.0236,-7.0257,-7.0316,-7.0308,-7.038,-7.0317,-7.0316,-7.0309,-7.0305,-7.0311,-7.0392,-7.0394,-7.0395,-7.0397,0,-6.9735,-6.9741,-6.98,-6.9863,-6.9911,-6.996,-7.0006,-7.0039,-7.005,-7.0098,-7.0167,-7.0208,-7.0288,-7.0353,-7.0412,-7.0435,-7.0417,-7.0417,-7.0435,-7.0436,-7.0431,-7.0434,-7.0221,-7.0411,-7.041,-7.0409,-7.0408,-7.0407,-6.985,-6.9906,-6.9952,-7.0018,-7.0054,-7.0098,-7.0151,-7.0173,-7.0232,-7.0299,-7.0298,-7.0373,-7.0415,-7.0493,-7.0521,-7.0578,-7.0555,-7.0581,-7.0588,-7.0594,-7.06,-7.0422,-7.0589,-7.0589,-7.0588,-7.0588,-7.0588,0,-7.0011,-7.0041,-7.0102,-7.0168,-7.022,-7.0202,-7.0252,-7.0296,-7.0364,-7.0406,-7.0459,-7.0538,-7.0601,-7.0628,-7.0689,-7.073,-7.0724,-7.0746,-7.0742,-7.0748,-7.0618,-7.0596,-7.075,-7.075,-7.075,-7.075,-7.075,-7.075,-7.0101,-7.0194,-7.0205,-7.0314,-7.0342,-7.0418,-7.0448,-7.0488,-7.0522,-7.0612,-7.0665,-7.0683,-7.0718,-7.0782,-7.0839,-7.0845,-7.0867,-7.0893,-7.0896,-7.0774,-7.0757,-7.0741,-7.0721,-7.0898,-7.0899,-7.1021,-7.1022,-7.1023]}]]